Kehra

Estonia     59˚20′08″N   25˚19′51″E
temp.,
°C
wind,
m/s
gust,
m/s
humid.,
%
clouds,
%
prec.,
mm/h
press.,
hPa
HPBL,
m
2 december, wed
wed223:00+1˚ssw4109197 0.0 1028431
02:00ssw4109374 0.0 1029438
05:00−1˚s389224 0.0 1029326
08:00−2˚s499351 0.0 1029282
11:00−2˚s378987 0.0 1030322
14:00−2˚s378471 0.0 1029386
17:00−4˚sse38880 0.0 1028320
20:00−4˚sse39890 0.0 1027427
3 december, thu
thu323:00−3˚sse479048 0.0 1026475
02:00−2˚sse478474 0.1 1025621
05:00−3˚sse4781100 0.0 1023621
08:00−2˚sse3884100 0.1 1022678
11:00−1˚se478397 0.0 1021773
14:00−2˚sse488399 0.1 1020649
17:00−3˚sse4883100 0.1 1019773
20:00−2˚sse41088100 0.1 1019785
4 december, fri
fri423:00−1˚sse51081100 0.1 1018878
02:00−1˚sse51182100 0.1 1018772
05:00sse51183100 0.0 1016770
08:00sse51284100 0.0 1016889
11:00+1˚sse61382100 0.0 1016784
14:00+1˚sse61381100 0.2 1016761
17:00+2˚sse61383100 0.0 1016887
20:00+2˚sse61484100 0.0 1015904
5 december, sat
sat523:00+3˚sse61485100 0.0 1015980
02:00+4˚sse71484100 0.0 1015948
05:00+4˚sse61585100 0.0 1015826
08:00+4˚sse61586100 0.0 1016747
11:00+4˚sse61485100 0.0 1017830
14:00+4˚sse51285100 0.0 1018794
17:00+4˚sse51386100 0.0 1019693
20:00+4˚sse51287100 0.0 1020780
6 december, sun
sun623:00+5˚sse41287100 0.0 1020725
02:00+4˚sse51288100 0.0 1021587
05:00+4˚sse51288100 0.0 1021611
08:00+4˚sse51287100 0.0 1022658
11:00+4˚sse61385100 0.0 1023726
14:00+4˚sse51283100 0.0 1023754
17:00+3˚se5138397 0.0 1023706
20:00+2˚se5128397 0.0 1024660